Date String (YYYY-MM-DD hh:mm:ss) UTC,Instrument flags,Ambient pressure (hPa),Sample flow (lpm),Bypass flow (lpm),Sample temperature (°C),Ambient temperature (°C),ASC tube jacket temperature (°C),LED temperature (°C),Box temperature (°C),Sample RH (%),Span deviation,Mass concentration (μg/m³),Mass concentration (μg/m³),Mass concentration (μg/m³)
DateTimeUTC,F1_M11,P_M11,Q1_M11,Q2_M11,T1_M11,T2_M11,T3_M11,T4_M11,T5_M11,U1_M11,ZSPAN_M11,X0_M11,X2_M11,X1_M11
2022-07-22 16:00:00,,0829.4,5.00,0.00,29.5,27.2,00.0,38.1,31.4,17.7,0000.0,0018.31,0006.82,0005.74
2022-07-22 16:01:00,,0829.2,4.99,0.00,29.5,27.1,00.0,38.1,31.3,17.6,0000.0,0017.64,0006.83,0005.76
2022-07-22 16:02:00,,0829.2,5.00,0.00,29.4,27.2,00.0,38.1,31.2,17.0,0000.0,0017.50,0006.80,0005.76
2022-07-22 16:03:00,,0828.8,5.00,0.00,29.4,27.3,00.0,38.1,31.2,16.5,0000.0,0017.91,0006.78,0005.75
2022-07-22 16:04:00,,0829.2,5.00,0.00,29.4,27.5,00.0,38.1,31.2,16.7,0000.0,0017.30,0006.76,0005.73
2022-07-22 16:05:00,,0829.2,5.01,0.00,29.4,27.7,00.0,38.1,31.3,16.7,0000.0,0017.00,0006.74,0005.73
2022-07-22 16:06:00,,0829.1,5.00,0.00,29.4,27.8,00.0,38.2,31.3,16.9,0000.0,0015.42,0006.66,0005.72
2022-07-22 16:07:00,,0829.2,5.00,0.00,29.4,28.0,00.0,38.2,31.4,16.9,0000.0,0014.43,0006.64,0005.71
2022-07-22 16:08:00,,0829.2,5.01,0.00,29.5,28.2,00.0,38.2,31.4,16.9,0000.0,0014.08,0006.59,0005.70
2022-07-22 16:09:00,,0829.3,4.99,0.00,29.5,28.3,00.0,38.2,31.5,17.2,0000.0,0013.39,0006.57,0005.71
2022-07-22 16:10:00,,0829.3,5.00,0.00,29.5,27.8,00.0,38.1,31.4,17.2,0000.0,0013.41,0006.59,0005.70
2022-07-22 16:11:00,,0829.1,5.01,0.00,29.5,27.3,00.0,38.1,31.3,17.3,0000.0,0014.00,0006.65,0005.69
2022-07-22 16:12:00,,0829.1,5.00,0.00,29.5,27.2,00.0,38.1,31.3,17.0,0000.0,0014.16,0006.69,0005.68
2022-07-22 16:13:00,,0828.9,5.01,0.00,29.4,27.4,00.0,38.1,31.2,17.0,0000.0,0014.57,0006.71,0005.68
2022-07-22 16:14:00,,0829.3,5.00,0.00,29.4,27.5,00.0,38.1,31.2,17.1,0000.0,0015.16,0006.70,0005.69
2022-07-22 16:15:00,,0829.4,5.00,0.00,29.4,27.7,00.0,38.1,31.3,16.5,0000.0,0014.89,0006.67,0005.69
2022-07-22 16:16:00,,0829.3,4.99,0.00,29.4,27.9,00.0,38.1,31.3,16.4,0000.0,0014.29,0006.63,0005.68
2022-07-22 16:17:00,,0829.2,5.01,0.00,29.4,28.0,00.0,38.2,31.4,16.9,0000.0,0014.50,0006.63,0005.68
2022-07-22 16:18:00,,0829.4,5.00,0.00,29.5,28.1,00.0,38.2,31.4,17.0,0000.0,0015.44,0006.66,0005.68
2022-07-22 16:19:00,,0829.4,4.99,0.00,29.5,27.7,00.0,38.1,31.4,16.8,0000.0,0015.84,0006.66,0005.67
2022-07-22 16:20:00,,0829.3,5.01,0.00,29.4,27.2,00.0,38.0,31.3,16.8,0000.0,0016.11,0006.69,0005.67
2022-07-22 16:21:00,,0829.3,4.99,0.00,29.4,27.2,00.0,38.0,31.2,16.9,0000.0,0015.44,0006.66,0005.68
2022-07-22 16:22:00,,0829.3,5.01,0.00,29.4,27.3,00.0,38.1,31.2,16.8,0000.0,0014.66,0006.61,0005.68
2022-07-22 16:23:00,,0829.3,5.00,0.00,29.3,27.4,00.0,38.1,31.2,16.6,0000.0,0014.60,0006.61,0005.67
2022-07-22 16:24:00,,0829.3,4.98,0.00,29.4,27.6,00.0,38.1,31.2,16.9,0000.0,0014.55,0006.59,0005.67
2022-07-22 16:25:00,,0829.3,5.00,0.00,29.4,27.8,00.0,38.1,31.3,17.1,0000.0,0014.58,0006.63,0005.67
2022-07-22 16:26:00,,0829.2,5.00,0.00,29.4,27.9,00.0,38.1,31.3,16.8,0000.0,0015.10,0006.64,0005.67
2022-07-22 16:27:00,,0829.3,4.99,0.00,29.4,28.1,00.0,38.1,31.4,16.9,0000.0,0015.42,0006.69,0005.69
2022-07-22 16:28:00,,0828.9,5.01,0.00,29.4,27.7,00.0,38.0,31.3,16.8,0000.0,0015.09,0006.73,0005.69
2022-07-22 16:29:00,,0828.8,5.02,0.00,29.4,27.1,00.0,38.0,31.3,16.8,0000.0,0014.27,0006.73,0005.69
2022-07-22 16:30:00,,0828.7,4.99,0.00,29.4,27.1,00.0,38.0,31.2,17.0,0000.0,0014.55,0006.74,0005.69
2022-07-22 16:31:00,,0828.7,4.99,0.00,29.3,27.2,00.0,38.0,31.1,17.1,0000.0,0015.52,0006.71,0005.67
2022-07-22 16:32:00,,0828.8,5.00,0.00,29.3,27.4,00.0,38.0,31.2,17.4,0000.0,0016.58,0006.73,0005.65
2022-07-22 16:33:00,,0828.7,5.00,0.00,29.3,27.6,00.0,38.0,31.2,17.0,0000.0,0016.50,0006.72,0005.66
2022-07-22 16:34:00,,0828.7,5.01,0.00,29.3,27.8,00.0,38.1,31.2,16.9,0000.0,0017.15,0006.68,0005.65
2022-07-22 16:35:00,,0828.8,4.99,0.00,29.4,28.0,00.0,38.1,31.3,17.7,0000.0,0017.25,0006.71,0005.65
2022-07-22 16:36:00,,0828.7,4.99,0.00,29.4,28.1,00.0,38.1,31.3,17.5,0000.0,0016.87,0006.70,0005.65
2022-07-22 16:37:00,,0828.7,5.00,0.00,29.4,27.7,00.0,38.0,31.3,17.1,0000.0,0017.08,0006.75,0005.65
2022-07-22 16:38:00,,0828.7,5.01,0.00,29.4,27.2,00.0,38.0,31.2,17.3,0000.0,0017.24,0006.75,0005.64
2022-07-22 16:39:00,,0828.7,4.99,0.00,29.4,27.1,00.0,38.0,31.2,17.1,0000.0,0017.59,0006.76,0005.64
2022-07-22 16:40:00,,0828.8,5.00,0.00,29.3,27.2,00.0,38.0,31.1,17.1,0000.0,0017.97,0006.74,0005.63
2022-07-22 16:41:00,,0829.0,5.00,0.00,29.3,27.4,00.0,38.0,31.1,17.1,0000.0,0018.62,0006.71,0005.62
2022-07-22 16:42:00,,0828.8,5.01,0.00,29.3,27.6,00.0,38.0,31.2,17.0,0000.0,0018.40,0006.73,0005.63
2022-07-22 16:43:00,,0828.9,5.00,0.00,29.3,27.8,00.0,38.0,31.2,17.1,0000.0,0017.13,0006.73,0005.63
2022-07-22 16:44:00,,0829.2,5.00,0.00,29.3,27.9,00.0,38.0,31.3,17.0,0000.0,0017.44,0006.74,0005.62
2022-07-22 16:45:00,,0829.0,4.99,0.00,29.4,28.1,00.0,38.0,31.4,16.7,0000.0,0016.76,0006.72,0005.61
2022-07-22 16:46:00,,0828.7,5.00,0.00,29.4,27.8,00.0,38.0,31.3,17.3,0000.0,0016.47,0006.67,0005.60
2022-07-22 16:47:00,,0828.7,5.00,0.00,29.4,27.2,00.0,38.0,31.2,17.6,0000.0,0015.67,0006.67,0005.60
2022-07-22 16:48:00,,0829.0,5.01,0.00,29.3,27.2,00.0,37.9,31.2,17.9,0000.0,0014.97,0006.63,0005.59
2022-07-22 16:49:00,,0829.2,5.01,0.00,29.3,27.3,00.0,38.0,31.1,18.1,0000.0,0014.80,0006.66,0005.60
2022-07-22 16:50:00,,0829.1,5.00,0.00,29.3,27.4,00.0,38.0,31.1,17.7,0000.0,0014.39,0006.63,0005.60
2022-07-22 16:51:00,,0828.7,5.00,0.00,29.3,27.6,00.0,38.0,31.2,18.0,0000.0,0014.11,0006.66,0005.62
2022-07-22 16:52:00,,0828.9,5.00,0.00,29.3,27.8,00.0,38.0,31.2,18.1,0000.0,0013.25,0006.70,0005.64
2022-07-22 16:53:00,,0829.1,4.99,0.00,29.3,28.0,00.0,38.0,31.3,17.7,0000.0,0012.75,0006.75,0005.64
2022-07-22 16:54:00,,0829.0,5.01,0.00,29.4,28.0,00.0,38.0,31.3,17.9,0000.0,0012.76,0006.74,0005.66
2022-07-22 16:55:00,,0829.1,5.00,0.00,29.3,27.4,00.0,38.0,31.2,17.5,0000.0,0012.59,0006.75,0005.67
2022-07-22 16:56:00,,0828.9,4.99,0.00,29.3,27.1,00.0,37.9,31.2,17.7,0000.0,0013.00,0006.79,0005.70
2022-07-22 16:57:00,,0828.8,5.01,0.00,29.3,27.2,00.0,37.9,31.1,18.2,0000.0,0013.20,0006.83,0005.72
2022-07-22 16:58:00,,0828.8,5.00,0.00,29.3,27.3,00.0,38.0,31.1,18.1,0000.0,0013.80,0006.83,0005.72
2022-07-22 16:59:00,,0829.1,5.00,0.00,29.2,27.5,00.0,38.0,31.1,17.1,0000.0,0014.01,0006.85,0005.72
